Terminal Aerodrome Forecast
Issued by NWS

Home | Current Version | Previous Version | Text Only | Print | Product List | Glossary Off
Versions: 1 2 3 4 5 6 7 8 9 10 11 12 13 14 15 16 17 18 19 20 21

000
FTUS43 KOAX 181139
TAFCDR
TAF
KCDR 181139Z 1812/1912 18010KT P6SM BKN150
     FM181700 35006KT P6SM BKN050 OVC100
     FM182000 04016G23KT 1SM -SN BR BKN007 OVC015=

USA.gov is the U.S. government's official web portal to all federal, state and local government web resources and services.